Dassault Systemes SA Gross Margin 2006-2021 | DASTY

Current and historical gross margin for Dassault Systemes SA (DASTY) over the last 10 years. The current gross profit margin for Dassault Systemes SA as of March 31, 2021 is %.
Dassault Systemes SA Gross Margin Historical Data
Date TTM Revenue TTM Gross Profit Gross Margin
2021-03-31 $5.25B $4.37B 83.29%
2020-12-31 $5.09B $4.23B 83.13%
2020-09-30 $4.95B $4.09B 82.77%
2020-06-30 $4.76B $3.97B 83.32%
2020-03-31 $4.66B $3.90B 83.70%
2019-12-31 $4.50B $3.79B 84.27%
2019-09-30 $4.39B $3.73B 85.00%
2019-06-30 $4.33B $3.69B 85.11%
2019-03-31 $4.25B $3.63B 85.41%
2018-12-31 $4.11B $3.50B 85.32%
2018-09-30 $3.98B $3.39B 85.31%
2018-06-30 $3.90B $3.33B 85.42%
2018-03-31 $3.79B $3.23B 85.39%
2017-12-31 $3.65B $3.11B 85.28%
2017-09-30 $3.53B $3.01B 85.22%
2017-06-30 $3.46B $2.95B 85.13%
2017-03-31 $3.43B $2.91B 84.89%
2016-12-31 $3.38B $2.87B 84.83%
2016-09-30 $3.25B $2.74B 84.29%
2016-06-30 $3.18B $2.68B 84.15%
2016-03-31 $3.12B $2.63B 84.16%
2015-12-31 $3.15B $2.67B 84.53%
2015-09-30 $3.11B $2.61B 83.91%
2015-06-30 $3.07B $2.58B 83.83%
2015-03-31 $3.03B $2.55B 84.17%
2014-12-31 $2.93B $2.47B 84.43%
2014-09-30 $2.92B $2.51B 85.93%
2014-06-30 $2.89B $2.51B 86.88%
2014-03-31 $2.83B $2.47B 87.27%
2013-12-31 $2.77B $2.42B 87.46%
2013-09-30 $2.77B $2.42B 87.49%
2013-06-30 $2.73B $2.39B 87.45%
2013-03-31 $2.65B $2.31B 87.19%
2012-12-31 $2.63B $2.29B 86.99%
2012-09-30 $2.55B $2.21B 86.72%
2012-06-30 $2.50B $2.16B 86.27%
2012-03-31 $2.51B $2.15B 85.89%
2011-12-31 $2.46B $2.11B 85.87%
2011-09-30 $2.41B $2.08B 85.96%
2011-06-30 $2.33B $2.01B 85.98%
2011-03-31 $2.21B $1.91B 86.31%
2010-12-31 $2.07B $1.78B 85.84%
2010-09-30 $1.94B $1.65B 85.24%
2010-06-30 $1.85B $1.57B 84.96%
2010-03-31 $1.79B $1.51B 84.55%
2009-12-31 $1.78B $1.51B 84.61%
2009-09-30 $1.78B $1.51B 84.42%
2009-06-30 $1.82B $1.53B 83.98%
2009-03-31 $1.89B $1.59B 83.90%
2008-12-31 $1.95B $1.63B 83.96%
2008-09-30 $1.97B $1.66B 84.38%
2008-06-30 $1.91B $1.60B 84.06%
2008-03-31 $1.81B $1.52B 83.86%
2007-12-31 $1.73B $1.44B 83.47%
2007-09-30 $1.66B $1.37B 83.02%
2007-06-30 $1.60B $1.33B 83.09%
2007-03-31 $1.54B $1.28B 82.95%
2006-12-31 $1.46B $1.22B 83.28%
2006-09-30 $1.31B $1.17B 88.87%
2006-06-30 $1.22B $1.02B 83.28%
2006-03-31 $1.14B $0.96B 83.89%
2005-12-31 $1.10B $0.92B 83.91%
Sector Industry Market Cap Revenue
Computer and Technology Computer Software $71.082B $5.085B
Dassault Systemes is a worldwide recognized leader in CAD/CAM/CAE and PDM II markets. The company's mission to provide solutions to enable customersto build their digital enterprise, by defining, simulating, managing and optimizing concurrently product, manufacturing process, and resources. In this virtual space, customers create innovative, high quality, safe and affordable products. The company delivers scaleable process and design-centric solutions on both Unix and Windows NT environments.
Stock Name Country Market Cap PE Ratio
Microsoft (MSFT) United States $2158.098B 35.95
Adobe (ADBE) United States $294.549B 63.48
Oracle (ORCL) United States $245.138B 21.00
Salesforce, Inc (CRM) United States $225.490B 69.77
SAP SE (SAP) Germany $173.735B 22.10
Intuit (INTU) United States $142.890B 68.09
Autodesk (ADSK) United States $67.819B 116.76
VMware (VMW) United States $65.768B 30.60
Synopsys (SNPS) United States $42.898B 54.59
Cadence Design Systems (CDNS) United States $39.654B 55.53
ANSYS (ANSS) United States $31.361B 64.49
SS&C Technologies Holdings (SSNC) United States $19.191B 17.91
PTC (PTC) United States $16.780B 61.37
Nuance Communications (NUAN) United States $15.748B 144.87
Citrix Systems (CTXS) United States $14.243B 31.17
Open Text (OTEX) Canada $14.009B 15.87
Pegasystems (PEGA) United States $10.889B 0.00
Aspen Technology (AZPN) United States $9.847B 43.09
Manhattan Associates (MANH) United States $9.239B 98.12
Trend Micro (TMICY) Japan $7.481B 29.21
MicroStrategy (MSTR) United States $6.146B 124.63
Descartes Systems Group (DSGX) Canada $6.017B 104.56
ACI Worldwide (ACIW) United States $4.048B 21.97
CommVault Systems (CVLT) United States $3.454B 89.23
Blackbaud (BLKB) United States $3.433B 51.33
Cornerstone OnDemand (CSOD) United States $3.143B 21.10
Verint Systems (VRNT) United States $2.749B 16.46
Progress Software (PRGS) United States $1.997B 15.42
PROS Holdings (PRO) United States $1.901B 0.00
Bottomline Technologies (EPAY) United States $1.805B 142.04
QAD (QADB) United States $1.781B 140.98
Avid Technology (AVID) United States $1.560B 44.24
Sapiens (SPNS) Israel $1.335B 24.42
Canaan (CAN) China $0.944B 0.00
Simulations Plus (SLP) United States $0.913B 79.60
OptimizeRx (OPRX) United States $0.900B 2575.00
Magic Software Enterprises (MGIC) Israel $0.875B 22.89
American Software (AMSWA) United States $0.685B 80.54
Icad Inc (ICAD) United States $0.361B 0.00
Smith Micro Software (SMSI) United States $0.297B 69.38
ServiceSource (SREV) United States $0.146B 0.00
Park City (PCYG) United States $0.112B 52.18
Neonode (NEON) Sweden $0.065B 0.00
NetSol Technologies (NTWK) United States $0.049B 19.50
BSQUARE (BSQR) United States $0.039B 0.00
GSE Systems (GVP) United States $0.028B 0.00